Location: Newark
(45.6000°N, 12.8833°E)
Time: 22:13:59
(UTC+00:00)

Envisat - Pass Details

Date: 30 October 2019
Orbit: 764 x 766 km, 98.1° (Epoch: 17 November)

Event Time Altitude Azimuth Distance (km) Brightness Sun altitude
Rises 16:18:38 0° 141° (SE) 3,222 6.0 -4.1°
Reaches altitude 10° 16:21:04 10° 133° (SE) 2,300 5.2 -4.5°
Maximum altitude 16:25:41 36° 67° (ENE) 1,194 3.5 -5.3°
Drops below altitude 10° 16:30:18 10° 2° (N) 2,313 5.3 -6.1°
Sets 16:32:45 0° 354° (N) 3,244 6.2 -6.5°
